Time,TemperatureF,DewpointF,PressureIn,WindDirection,WindDirectionDegrees,WindSpeedMPH,WindSpeedGustMPH,Humidity,HourlyPrecipIn,Conditions,Clouds,dailyrainin,SolarRadiationWatts/m^2,SoftwareType,DateUTC
2013-08-16 00:03:00,49.0,48.0,-100.00,NE,35,1.0,3.0,97,0.00,,,0.01,0.000000,,2013-08-16 04:03:00,
2013-08-16 00:13:00,49.0,48.0,-100.00,NE,35,1.0,3.0,97,0.00,,,0.01,0.000000,,2013-08-16 04:13:00,
2013-08-16 00:54:00,47.0,46.0,-100.00,East,89,1.0,4.0,98,0.00,,,0.01,0.000000,,2013-08-16 04:54:00,
2013-08-16 01:02:00,47.0,46.0,-100.00,East,89,1.0,4.0,98,0.00,,,0.01,0.000000,,2013-08-16 05:02:00,
2013-08-16 01:12:00,47.0,46.0,-100.00,East,89,1.0,4.0,98,0.00,,,0.01,0.000000,,2013-08-16 05:12:00,
2013-08-16 03:42:00,45.0,44.0,-100.00,SW,235,0.0,1.0,98,-99.99,,,0.01,0.000000,,2013-08-16 07:42:00,
2013-08-16 03:52:00,45.0,44.0,-100.00,SW,235,0.0,1.0,98,-99.99,,,0.01,0.000000,,2013-08-16 07:52:00,
2013-08-16 04:02:00,45.0,44.0,-100.00,SW,235,0.0,1.0,98,-99.99,,,0.01,0.000000,,2013-08-16 08:02:00,
2013-08-16 04:11:00,45.0,44.0,-100.00,SW,235,0.0,1.0,98,-99.99,,,0.01,0.000000,,2013-08-16 08:11:00,
2013-08-16 04:42:00,45.0,44.0,-100.00,ENE,68,0.0,3.0,98,0.00,,,0.01,0.000000,,2013-08-16 08:42:00,
2013-08-16 04:52:00,45.0,44.0,-100.00,ENE,68,0.0,3.0,98,0.00,,,0.01,0.000000,,2013-08-16 08:52:00,
2013-08-16 05:01:00,45.0,44.0,-100.00,ENE,68,0.0,3.0,98,0.00,,,0.01,0.000000,,2013-08-16 09:01:00,
2013-08-16 05:11:00,45.0,44.0,-100.00,ENE,68,0.0,3.0,98,0.00,,,0.01,0.000000,,2013-08-16 09:11:00,
2013-08-16 05:42:00,45.0,44.0,-100.00,SSE,163,0.0,1.0,98,0.00,,,0.01,0.000000,,2013-08-16 09:42:00,
2013-08-16 05:53:00,45.0,44.0,-100.00,SSE,163,0.0,1.0,98,0.00,,,0.01,0.000000,,2013-08-16 09:53:00,
2013-08-16 06:03:00,45.0,44.0,-100.00,SSE,163,0.0,1.0,98,0.00,,,0.01,0.000000,,2013-08-16 10:03:00,
2013-08-16 06:13:00,45.0,44.0,-100.00,SSE,163,0.0,1.0,98,0.00,,,0.01,0.000000,,2013-08-16 10:13:00,
2013-08-16 06:42:00,46.0,45.0,-100.00,South,173,0.0,4.0,98,0.00,,,0.01,2.000000,,2013-08-16 10:42:00,
2013-08-16 06:53:00,46.0,45.0,-100.00,South,173,0.0,4.0,98,0.00,,,0.01,2.000000,,2013-08-16 10:53:00,
2013-08-16 07:02:00,46.0,45.0,-100.00,South,173,0.0,4.0,98,0.00,,,0.01,2.000000,,2013-08-16 11:02:00,
2013-08-16 07:12:00,46.0,45.0,-100.00,South,173,0.0,4.0,98,0.00,,,0.01,2.000000,,2013-08-16 11:12:00,
2013-08-16 07:42:00,49.0,48.0,-100.00,SSE,155,1.0,3.0,98,0.00,,,0.00,46.000000,,2013-08-16 11:42:00,
2013-08-16 07:52:00,49.0,48.0,-100.00,SSE,155,1.0,3.0,98,0.00,,,0.00,46.000000,,2013-08-16 11:52:00,
2013-08-16 08:02:00,49.0,48.0,-100.00,SSE,155,1.0,3.0,98,0.00,,,0.00,46.000000,,2013-08-16 12:02:00,
2013-08-16 08:12:00,49.0,48.0,-100.00,SSE,155,1.0,3.0,98,0.00,,,0.00,46.000000,,2013-08-16 12:12:00,
2013-08-16 08:42:00,57.0,56.0,-100.00,ESE,115,2.0,4.0,97,0.00,,,0.00,180.000000,,2013-08-16 12:42:00,
2013-08-16 08:52:00,57.0,56.0,-100.00,ESE,115,2.0,4.0,97,0.00,,,0.00,180.000000,,2013-08-16 12:52:00,
2013-08-16 09:02:00,57.0,56.0,-100.00,ESE,115,2.0,4.0,97,0.00,,,0.00,180.000000,,2013-08-16 13:02:00,
2013-08-16 09:11:00,57.0,56.0,-100.00,ESE,115,2.0,4.0,97,0.00,,,0.00,180.000000,,2013-08-16 13:11:00,
2013-08-16 11:43:00,73.0,55.0,-100.00,NW,324,4.0,10.0,54,0.00,,,0.00,623.000000,,2013-08-16 15:43:00,
2013-08-16 11:56:00,73.0,55.0,-100.00,NW,324,4.0,10.0,54,0.00,,,0.00,623.000000,,2013-08-16 15:56:00,
2013-08-16 12:05:00,73.0,55.0,-100.00,NW,324,4.0,10.0,54,0.00,,,0.00,623.000000,,2013-08-16 16:05:00,
2013-08-16 12:13:00,73.0,55.0,-100.00,NW,324,4.0,10.0,54,0.00,,,0.00,623.000000,,2013-08-16 16:13:00,
2013-08-16 12:44:00,71.0,54.0,-100.00,NW,322,4.0,11.0,55,0.00,,,0.00,406.000000,,2013-08-16 16:44:00,
2013-08-16 12:57:00,71.0,54.0,-100.00,NW,322,4.0,11.0,55,0.00,,,0.00,406.000000,,2013-08-16 16:57:00,
2013-08-16 13:03:00,71.0,54.0,-100.00,NW,322,4.0,11.0,55,0.00,,,0.00,406.000000,,2013-08-16 17:03:00,
2013-08-16 13:13:00,71.0,54.0,-100.00,NW,322,4.0,11.0,55,0.00,,,0.00,406.000000,,2013-08-16 17:13:00,
2013-08-16 13:14:00,73.0,52.0,-100.00,NW,318,2.0,10.0,47,0.00,,,0.00,528.000000,,2013-08-16 17:14:00,
2013-08-16 13:47:00,73.0,52.0,-100.00,NW,318,2.0,10.0,47,0.00,,,0.00,528.000000,,2013-08-16 17:47:00,
2013-08-16 14:00:00,73.0,52.0,-100.00,NW,318,2.0,10.0,47,0.00,,,0.00,528.000000,,2013-08-16 18:00:00,
2013-08-16 14:06:00,73.0,52.0,-100.00,NW,318,2.0,10.0,47,0.00,,,0.00,528.000000,,2013-08-16 18:06:00,
2013-08-16 14:14:00,75.0,52.0,-100.00,NNE,23,2.0,9.0,45,0.00,,,0.00,666.000000,,2013-08-16 18:14:00,
2013-08-16 14:50:00,-999.0,-99.9,-100.00,NNE,23,2.0,9.0,45,0.00,,,0.00,666.000000,,2013-08-16 18:50:00,
2013-08-16 15:03:00,75.0,52.0,-100.00,NNE,23,2.0,9.0,45,0.00,,,0.00,666.000000,,2013-08-16 19:03:00,
2013-08-16 15:46:00,76.0,54.0,-100.00,SSW,197,2.0,8.0,47,0.00,,,0.00,564.000000,,2013-08-16 19:46:00,
2013-08-16 15:55:00,76.0,54.0,-100.00,SSW,197,2.0,8.0,47,0.00,,,0.00,564.000000,,2013-08-16 19:55:00,
2013-08-16 16:02:00,76.0,54.0,-100.00,SSW,197,2.0,8.0,47,0.00,,,0.00,564.000000,,2013-08-16 20:02:00,
2013-08-16 16:11:00,76.0,54.0,-100.00,SSW,197,2.0,8.0,47,0.00,,,0.00,564.000000,,2013-08-16 20:11:00,
2013-08-16 16:44:00,75.0,56.0,-100.00,WNW,284,3.0,11.0,51,0.00,,,0.00,423.000000,,2013-08-16 20:44:00,
2013-08-16 16:52:00,75.0,56.0,-100.00,WNW,284,3.0,11.0,51,0.00,,,0.00,423.000000,,2013-08-16 20:52:00,
2013-08-16 17:01:00,75.0,56.0,-100.00,WNW,284,3.0,11.0,51,0.00,,,0.00,423.000000,,2013-08-16 21:01:00,
2013-08-16 17:11:00,75.0,56.0,-100.00,WNW,284,3.0,11.0,51,0.00,,,0.00,423.000000,,2013-08-16 21:11:00,
2013-08-16 17:40:00,-999.0,-99.9,-100.00,SW,221,2.0,5.0,-999,0.00,,,0.00,331.000000,,2013-08-16 21:40:00,
2013-08-16 17:54:00,76.0,58.0,-100.00,SW,221,2.0,5.0,54,0.00,,,0.00,331.000000,,2013-08-16 21:54:00,
2013-08-16 18:07:00,76.0,58.0,-100.00,SW,221,2.0,5.0,54,0.00,,,0.00,331.000000,,2013-08-16 22:07:00,
2013-08-16 18:13:00,76.0,58.0,-100.00,SW,221,2.0,5.0,54,0.00,,,0.00,331.000000,,2013-08-16 22:13:00,
2013-08-16 18:43:00,77.0,57.0,-100.00,SSW,209,0.0,9.0,51,0.00,,,0.00,314.000000,,2013-08-16 22:43:00,
2013-08-16 18:52:00,77.0,57.0,-100.00,SSW,209,0.0,9.0,51,0.00,,,0.00,314.000000,,2013-08-16 22:52:00,
2013-08-16 19:09:00,77.0,57.0,-100.00,SSW,209,0.0,9.0,51,0.00,,,0.00,314.000000,,2013-08-16 23:09:00,
2013-08-16 19:42:00,67.0,58.0,-100.00,NE,53,0.0,4.0,73,0.00,,,0.00,92.000000,,2013-08-16 23:42:00,
2013-08-16 19:52:00,67.0,58.0,-100.00,NE,53,0.0,4.0,73,0.00,,,0.00,92.000000,,2013-08-16 23:52:00,
2013-08-16 20:02:00,67.0,58.0,-100.00,NE,53,0.0,4.0,73,0.00,,,0.00,92.000000,,2013-08-17 00:02:00,
2013-08-16 20:12:00,67.0,58.0,-100.00,NE,53,0.0,4.0,73,0.00,,,0.00,92.000000,,2013-08-17 00:12:00,
2013-08-16 20:52:00,59.0,57.0,-100.00,SSE,152,0.0,1.0,93,0.00,,,0.00,5.000000,,2013-08-17 00:52:00,
2013-08-16 21:01:00,59.0,57.0,-100.00,SSE,152,0.0,1.0,93,0.00,,,0.00,5.000000,,2013-08-17 01:01:00,
2013-08-16 21:11:00,59.0,57.0,-100.00,SSE,152,0.0,1.0,93,0.00,,,0.00,5.000000,,2013-08-17 01:11:00,
2013-08-16 21:52:00,56.0,55.0,-100.00,SSW,200,1.0,3.0,97,0.00,,,0.00,0.000000,,2013-08-17 01:52:00,
2013-08-16 22:02:00,56.0,55.0,-100.00,SSW,200,1.0,3.0,97,0.00,,,0.00,0.000000,,2013-08-17 02:02:00,
2013-08-16 22:11:00,56.0,55.0,-100.00,SSW,200,1.0,3.0,97,0.00,,,0.00,0.000000,,2013-08-17 02:11:00,
2013-08-16 22:42:00,57.0,56.0,-100.00,SE,140,4.0,9.0,95,0.00,,,0.00,0.000000,,2013-08-17 02:42:00,
2013-08-16 22:52:00,57.0,56.0,-100.00,SE,140,4.0,9.0,95,0.00,,,0.00,0.000000,,2013-08-17 02:52:00,
2013-08-16 23:02:00,57.0,56.0,-100.00,SE,140,4.0,9.0,95,0.00,,,0.00,0.000000,,2013-08-17 03:02:00,
2013-08-16 23:11:00,57.0,56.0,-100.00,SE,140,4.0,9.0,95,0.00,,,0.00,0.000000,,2013-08-17 03:11:00,
2013-08-16 23:43:00,53.0,52.0,-100.00,South,180,1.0,11.0,95,0.00,,,0.00,0.000000,,2013-08-17 03:43:00,
2013-08-16 23:53:00,53.0,52.0,-100.00,South,180,1.0,11.0,95,0.00,,,0.00,0.000000,,2013-08-17 03:53:00,